EW6810 Weather Reports


Display with metric or nautical units.
time (UTC)temp
F
wind
direction
speed
MPH
gust
MPH
rain 1hr
in
rain 24hr
in
rain mn
in
humidity
%
barometer
mb
20260903001040 59 13 1.0 5.0 0.12 0.43 0.42 87 1000.4
20260903000640 59 32 1.0 5.0 0.11 0.42 0.40 87 1000.4
20260903000037 59 11 1.0 3.0 0.08 0.39 0.37 86 1000.4
20260902235537 59 5 0.0 3.0 0.05 0.35 0.34 86 1000.3
20260902235036 60 3 0.0 3.0 0.04 0.35 0.33 85 1000.2
20260902234537 60 16 0.0 6.0 0.02 0.33 0.31 84 1000.1
20260902234036 60 15 1.0 6.0 0.02 0.32 0.31 83 1000.0
20260902233540 60 7 1.0 9.0 0.01 0.31 0.30 82 1000.0
20260902233037 61 38 3.0 9.0 0.01 0.31 0.30 81 999.9
20260902232537 61 13 1.0 8.0 0.01 0.31 0.30 80 1000.0
20260902232035 61 360 2.0 6.0 0.00 0.31 0.28 80 999.9
20260902231535 61 350 2.0 6.0 0.00 0.31 0.28 79 999.9
20260902231039 62 134 2.0 6.0 0.00 0.31 0.28 78 999.8
20260902230634 62 144 1.0 6.0 0.00 0.31 0.28 77 999.8
20260902230100 62 179 2.0 7.0 0.00 0.31 0.28 77 999.7
20260902225556 62 111 1.0 10.0 0.00 0.31 0.28 76 999.6
20260902225056 62 44 1.0 10.0 0.00 0.31 0.28 73 999.5
20260902224553 63 132 0.0 8.0 0.00 0.31 0.28 75 999.6
20260902224052 63 18 2.0 8.0 0.00 0.31 0.28 75 999.5
20260902223552 63 342 1.0 10.0 0.00 0.31 0.28 75 999.5
20260902223051 62 9 4.0 10.0 0.00 0.31 0.28 77 999.6
20260902222549 62 36 3.0 8.0 0.00 0.31 0.28 82 999.7
20260902222048 62 13 0.0 4.0 0.01 0.31 0.28 84 999.7
20260902221549 62 6 1.0 7.0 0.02 0.31 0.28 84 999.8
20260902221050 61 21 1.0 7.0 0.02 0.31 0.28 85 999.8
20260902220646 61 28 0.0 3.0 0.02 0.31 0.28 88 1000.0
20260902220044 60 342 1.0 5.0 0.02 0.31 0.28 88 999.9
20260902215543 60 55 1.0 5.0 0.02 0.31 0.28 88 1000.0
20260902215042 60 38 0.0 3.0 0.02 0.31 0.28 89 1000.1
20260902214544 60 36 1.0 4.0 0.02 0.31 0.28 88 1000.0
20260902214042 60 28 1.0 5.0 0.02 0.31 0.28 88 1000.1
20260902213641 60 171 1.0 7.0 0.02 0.31 0.28 88 1000.2
20260902213041 60 319 1.0 7.0 0.02 0.31 0.28 85 1000.3
20260902212540 61 275 1.0 5.0 0.02 0.31 0.28 84 1000.3
20260902212040 61 24 1.0 5.0 0.01 0.30 0.28 83 1000.2
20260902211542 61 7 3.0 5.0 0.00 0.28 0.28 83 1000.2
20260902211044 61 335 0.0 4.0 0.00 0.28 0.28 83 1000.3
20260902210639 61 345 0.0 5.0 0.00 0.28 0.28 85 1000.3
20260902210053 61 254 2.0 5.0 0.00 0.28 0.28 87 1000.2
20260902205540 60 288 0.0 4.0 0.00 0.28 0.28 88 1000.3
20260902205039 60 61 0.0 6.0 0.00 0.28 0.28 88 1000.3
20260902204539 60 59 1.0 6.0 0.00 0.28 0.28 86 1000.4
20260902204038 60 299 1.0 2.0 0.00 0.28 0.28 86 1000.3
20260902203538 60 288 1.0 2.0 0.00 0.28 0.28 86 1000.4
20260902203038 60 291 0.0 2.0 0.00 0.28 0.28 85 1000.4
20260902202537 60 291 0.0 3.0 0.00 0.28 0.28 85 1000.5
20260902202037 60 284 0.0 5.0 0.00 0.28 0.28 85 1000.5
20260902201539 60 284 2.0 5.0 0.00 0.28 0.28 85 1000.5
20260902201035 60 349 0.0 3.0 0.00 0.28 0.28 85 1000.6
20260902200635 60 348 0.0 3.0 0.00 0.28 0.28 85 1000.6
20260902200055 60 348 2.0 3.0 0.00 0.28 0.28 85 1000.7
20260902195554 60 356 1.0 5.0 0.00 0.28 0.28 84 1000.8
20260902195054 60 351 1.0 5.0 0.00 0.28 0.28 84 1000.8
20260902194554 60 5 1.0 4.0 0.00 0.28 0.28 84 1000.8
20260902194053 60 3 2.0 4.0 0.00 0.28 0.28 83 1001.0
20260902193553 60 16 1.0 3.0 0.00 0.28 0.28 83 1000.9
20260902193052 60 16 2.0 3.0 0.00 0.28 0.28 83 1001.0
20260902192551 60 16 1.0 4.0 0.00 0.28 0.28 83 1001.1
20260902192054 60 17 1.0 4.0 0.00 0.28 0.28 83 1001.1
20260902191555 60 19 1.0 5.0 0.00 0.28 0.28 83 1001.2
20260902191050 60 152 1.0 8.0 0.00 0.28 0.28 83 1001.3
20260902190650 60 46 1.0 8.0 0.00 0.28 0.28 85 1001.2
20260902190044 60 8 0.0 4.0 0.00 0.28 0.28 84 1001.3
20260902185542 61 357 1.0 2.0 0.00 0.28 0.28 84 1001.4
20260902185042 61 358 0.0 3.0 0.00 0.28 0.28 83 1001.3
20260902184543 61 358 1.0 6.0 0.00 0.28 0.28 83 1001.4
20260902184040 61 357 1.0 6.0 0.00 0.28 0.28 83 1001.4
20260902183540 61 7 1.0 4.0 0.00 0.28 0.28 82 1001.5
20260902183040 61 349 0.0 4.0 0.00 0.28 0.28 82 1001.5
20260902182539 61 341 0.0 4.0 0.00 0.28 0.28 82 1001.6
20260902182041 61 22 0.0 2.0 0.00 0.28 0.28 83 1001.7
20260902181538 61 22 0.0 9.0 0.00 0.28 0.28 82 1001.8
20260902181037 60 22 1.0 9.0 0.00 0.28 0.28 81 1001.8
20260902180535 60 163 2.0 8.0 0.00 0.28 0.28 82 1001.8
20260902180034 60 152 2.0 8.0 0.00 0.28 0.28 84 1001.8
20260902175534 59 325 1.0 5.0 0.00 0.28 0.28 87 1001.8
20260902175033 59 139 0.0 5.0 0.00 0.28 0.28 87 1001.9
20260902174534 59 111 1.0 5.0 0.00 0.28 0.28 85 1001.9
20260902174033 59 332 1.0 5.0 0.00 0.28 0.28 86 1001.9
20260902173533 59 330 0.0 8.0 0.00 0.28 0.28 85 1001.9
20260902173037 59 344 1.0 11.0 0.00 0.28 0.28 85 1001.9
20260902172531 59 333 1.0 11.0 0.00 0.28 0.28 85 1002.0
20260902172031 59 38 2.0 7.0 0.00 0.28 0.28 85 1002.0
20260902171531 59 111 1.0 7.0 0.00 0.28 0.28 84 1001.9
20260902171031 60 192 1.0 5.0 0.00 0.28 0.28 85 1001.9
20260902170630 60 27 0.0 8.0 0.00 0.28 0.28 85 1001.8
20260902170057 60 27 2.0 12.0 0.00 0.28 0.28 84 1001.9
20260902165556 60 17 0.0 12.0 0.00 0.28 0.28 84 1001.9
20260902165056 60 33 2.0 8.0 0.00 0.28 0.28 84 1001.9
20260902164556 60 338 1.0 10.0 0.00 0.28 0.28 86 1001.9
20260902164052 59 11 2.0 10.0 0.00 0.28 0.28 86 1001.9
20260902163552 59 33 3.0 14.0 0.00 0.28 0.28 87 1002.0
20260902163057 58 63 4.0 14.0 0.00 0.28 0.28 89 1001.9
20260902162549 57 74 1.0 7.0 0.00 0.28 0.28 91 1001.9
20260902162047 57 9 1.0 5.0 0.00 0.28 0.28 92 1002.1
20260902161546 57 343 1.0 9.0 0.00 0.28 0.28 92 1002.2
20260902161045 57 67 3.0 9.0 0.00 0.28 0.28 92 1002.1
20260902160646 57 10 0.0 8.0 0.00 0.28 0.28 92 1002.2
20260902160047 56 348 2.0 14.0 0.00 0.28 0.28 92 1002.2
20260902155545 56 358 4.0 14.0 0.00 0.28 0.28 92 1002.3
20260902155044 56 66 3.0 12.0 0.00 0.28 0.28 92 1002.3
20260902154549 56 348 1.0 10.0 0.00 0.28 0.28 93 1002.4
20260902154043 56 6 2.0 10.0 0.00 0.28 0.28 93 1002.5
20260902153543 56 32 4.0 10.0 0.00 0.28 0.28 93 1002.5
20260902153045 56 15 1.0 9.0 0.00 0.28 0.28 93 1002.4
20260902152542 56 350 2.0 7.0 0.00 0.28 0.28 93 1002.5
20260902152041 56 5 3.0 7.0 0.00 0.28 0.28 93 1002.5
20260902151541 56 16 2.0 7.0 0.01 0.28 0.28 93 1002.5
20260902151040 56 80 1.0 5.0 0.03 0.28 0.28 93 1002.6
20260902150641 56 16 1.0 15.0 0.05 0.28 0.28 93 1002.7
20260902150033 56 20 4.0 15.0 0.06 0.28 0.28 93 1002.7
20260902145633 56 55 0.0 7.0 0.06 0.28 0.28 93 1002.8
20260902145033 56 326 1.0 6.0 0.06 0.28 0.28 93 1002.8
20260902144536 56 13 2.0 5.0 0.06 0.28 0.28 93 1002.8
20260902144030 56 26 1.0 4.0 0.06 0.28 0.28 93 1002.8
20260902143530 56 30 1.0 6.0 0.06 0.28 0.28 93 1002.9
20260902143030 56 14 0.0 7.0 0.06 0.28 0.28 93 1002.9
20260902142531 56 121 2.0 6.0 0.06 0.28 0.28 93 1002.9
20260902142029 56 321 1.0 5.0 0.06 0.28 0.28 93 1002.9
20260902141534 56 121 1.0 6.0 0.04 0.28 0.26 93 1002.9
20260902141028 56 336 1.0 7.0 0.02 0.26 0.24 93 1003.0
20260902140526 56 5 2.0 7.0 0.00 0.24 0.22 93 1002.8
20260902140034 56 345 2.0 5.0 0.00 0.24 0.22 93 1002.8
20260902135529 56 136 1.0 7.0 0.00 0.24 0.22 93 1002.8
20260902135025 56 20 1.0 7.0 0.00 0.24 0.22 93 1002.8
20260902134526 56 18 1.0 9.0 0.00 0.24 0.22 93 1002.8
20260902134024 56 341 2.0 9.0 0.00 0.24 0.22 93 1002.8
20260902133524 56 360 1.0 4.0 0.00 0.24 0.22 93 1002.8
20260902133024 56 357 1.0 5.0 0.00 0.24 0.22 93 1002.7
20260902132523 56 358 1.0 5.0 0.00 0.24 0.22 93 1002.7
20260902132023 56 359 2.0 6.0 0.00 0.24 0.22 93 1002.7
20260902131538 56 338 1.0 6.0 0.00 0.24 0.22 93 1002.7
20260902131022 56 9 0.0 7.0 0.00 0.24 0.22 93 1002.7
20260902130523 56 25 1.0 7.0 0.00 0.24 0.22 92 1002.7
20260902130024 56 25 0.0 2.0 0.00 0.24 0.22 92 1002.7
20260902125521 56 25 0.0 3.0 0.00 0.24 0.22 92 1002.8
20260902125021 56 25 0.0 9.0 0.00 0.24 0.22 92 1002.9
20260902124521 56 25 1.0 9.0 0.01 0.24 0.22 92 1002.9
20260902124020 56 13 1.0 4.0 0.02 0.24 0.22 92 1003.0
20260902123521 56 28 1.0 4.0 0.02 0.24 0.22 92 1002.9
20260902123020 56 67 1.0 5.0 0.02 0.24 0.22 92 1003.0
20260902122519 56 348 1.0 5.0 0.03 0.24 0.22 92 1003.0
20260902122019 56 149 2.0 9.0 0.04 0.24 0.22 92 1003.0
20260902121517 56 21 3.0 7.0 0.04 0.24 0.22 92 1003.1
20260902121017 56 22 1.0 11.0 0.07 0.24 0.22 92 1003.1
20260902120516 56 358 4.0 11.0 0.09 0.24 0.22 92 1003.2
20260902120017 56 38 2.0 5.0 0.09 0.24 0.22 92 1003.2
20260902115515 56 9 0.0 3.0 0.09 0.24 0.22 92 1003.1
20260902115020 56 111 2.0 5.0 0.09 0.24 0.22 92 1003.3
20260902114520 56 53 2.0 5.0 0.10 0.23 0.21 92 1003.3
20260902114016 56 354 1.0 7.0 0.10 0.22 0.20 92 1003.3
20260902113514 56 11 1.0 7.0 0.09 0.21 0.20 92 1003.4
20260902113011 56 221 0.0 5.0 0.10 0.21 0.20 92 1003.5
20260902112515 56 359 0.0 5.0 0.09 0.20 0.19 92 1003.5
20260902112010 56 24 2.0 6.0 0.09 0.20 0.18 92 1003.6
20260902111515 56 11 2.0 5.0 0.09 0.20 0.18 92 1003.7
20260902111008 57 328 1.0 5.0 0.07 0.17 0.15 92 1003.7
20260902110508 57 27 0.0 6.0 0.06 0.15 0.13 92 1003.7
20260902110008 57 28 1.0 6.0 0.05 0.14 0.13 92 1003.7
20260902105506 57 54 1.0 6.0 0.05 0.14 0.13 92 1003.8
20260902105006 57 152 2.0 5.0 0.06 0.14 0.13 92 1003.8
20260902104512 57 31 1.0 10.0 0.05 0.13 0.11 92 1003.8
20260902104005 57 15 2.0 10.0 0.05 0.12 0.10 91 1003.9
20260902103504 57 39 1.0 8.0 0.06 0.12 0.10 92 1003.9
20260902103005 57 354 1.0 7.0 0.06 0.11 0.09 92 1004.0
20260902102502 57 11 1.0 7.0 0.07 0.11 0.09 92 1004.0
20260902102002 57 254 0.0 5.0 0.06 0.10 0.09 91 1004.0
20260902101501 57 101 0.0 6.0 0.07 0.10 0.09 91 1004.1
20260902101000 58 173 1.0 6.0 0.07 0.09 0.08 91 1004.0
20260902100502 58 38 0.0 8.0 0.07 0.09 0.08 91 1004.0
20260902100122 58 19 1.0 8.0 0.07 0.09 0.08 91 1004.1
20260902095559 58 221 1.0 4.0 0.08 0.09 0.08 91 1004.0
20260902095059 58 229 0.0 4.0 0.06 0.08 0.06 91 1004.1
20260902094558 58 61 0.0 4.0 0.06 0.08 0.06 91 1004.1
20260902094058 58 144 1.0 6.0 0.06 0.07 0.06 91 1004.0
20260902093558 58 2 0.0 6.0 0.05 0.06 0.05 91 1004.0
20260902093101 59 84 0.0 3.0 0.04 0.06 0.04 90 1004.1
20260902092557 59 254 0.0 3.0 0.02 0.04 0.02 90 1004.1
20260902092058 59 254 0.0 3.0 0.02 0.04 0.02 90 1004.1
20260902091607 59 256 0.0 3.0 0.02 0.03 0.02 90 1004.3
20260902091053 59 257 0.0 6.0 0.02 0.03 0.02 90 1004.3
20260902090553 59 106 1.0 4.0 0.01 0.02 0.01 89 1004.3
20260902090053 59 32 1.0 4.0 0.01 0.02 0.01 89 1004.3
20260902085554 59 144 0.0 3.0 0.00 0.02 0.00 89 1004.4
20260902085052 59 187 0.0 5.0 0.00 0.02 0.00 89 1004.4
20260902084552 59 4 2.0 5.0 0.00 0.02 0.00 89 1004.4
20260902084052 59 37 0.0 4.0 0.00 0.02 0.00 89 1004.4
20260902083551 59 121 0.0 4.0 0.00 0.02 0.00 89 1004.4
20260902083051 59 159 0.0 8.0 0.00 0.02 0.00 89 1004.4
20260902082554 59 140 2.0 8.0 0.00 0.02 0.00 89 1004.4
20260902082050 59 71 1.0 7.0 0.00 0.02 0.00 89 1004.4
20260902081549 59 150 0.0 5.0 0.00 0.02 0.00 89 1004.4
20260902081049 59 61 0.0 2.0 0.00 0.02 0.00 89 1004.4
20260902080548 59 117 0.0 4.0 0.00 0.02 0.00 89 1004.4
20260902080103 59 46 1.0 5.0 0.00 0.02 0.00 89 1004.4
20260902075547 59 337 0.0 7.0 0.00 0.02 0.00 89 1004.5
20260902075049 59 40 2.0 7.0 0.00 0.02 0.00 89 1004.5
20260902074549 59 348 1.0 3.0 0.00 0.02 0.00 89 1004.5
20260902074050 59 23 0.0 3.0 0.00 0.02 0.00 89 1004.5
20260902073546 59 48 1.0 3.0 0.00 0.02 0.00 89 1004.5
20260902073054 59 111 1.0 4.0 0.00 0.02 0.00 90 1004.5
20260902072548 59 210 0.0 4.0 0.01 0.02 0.00 89 1004.5
20260902072043 59 338 1.0 7.0 0.01 0.02 0.00 90 1004.5
20260902071556 59 5 0.0 7.0 0.01 0.02 0.00 90 1004.5
20260902071040 59 9 1.0 6.0 0.01 0.02 0.00 90 1004.5
20260902070539 59 346 1.0 7.0 0.01 0.02 0.00 90 1004.5
20260902070037 59 11 1.0 7.0 0.02 0.02 0.00 89 1004.6
20260902065536 59 319 1.0 4.0 0.02 0.02 0.02 89 1004.7
20260902065036 59 360 0.0 4.0 0.02 0.02 0.02 89 1004.7
20260902064537 59 352 0.0 5.0 0.02 0.02 0.02 89 1004.8
20260902064035 59 3 1.0 5.0 0.02 0.02 0.02 89 1004.8
20260902063536 59 10 0.0 2.0 0.02 0.02 0.02 89 1004.8
20260902063043 59 10 0.0 3.0 0.02 0.02 0.02 88 1004.8
20260902062535 59 10 0.0 3.0 0.01 0.01 0.01 87 1004.8
20260902062034 60 347 0.0 4.0 0.01 0.01 0.01 87 1004.8
20260902061544 60 348 0.0 4.0 0.01 0.01 0.01 86 1004.9
20260902061034 60 358 0.0 3.0 0.01 0.01 0.01 85 1004.9
20260902060533 60 352 0.0 3.0 0.01 0.01 0.01 84 1004.9
20260902060035 61 157 0.0 4.0 0.00 0.00 0.00 82 1004.9
20260902055535 61 46 0.0 4.0 0.00 0.00 0.00 81 1004.9
20260902055034 62 331 1.0 6.0 0.00 0.00 0.00 79 1005.0
20260902054542 62 138 1.0 6.0 0.00 0.00 0.00 77 1004.9
20260902054035 62 147 0.0 5.0 0.00 0.00 0.00 76 1005.0
20260902053534 62 147 1.0 5.0 0.00 0.00 0.00 76 1004.9
20260902053034 62 90 0.0 3.0 0.00 0.00 0.00 75 1004.9
20260902052534 62 34 0.0 3.0 0.00 0.00 0.00 75 1004.9
20260902052032 62 34 0.0 3.0 0.00 0.00 0.00 75 1004.9
20260902051532 62 27 0.0 3.0 0.00 0.00 0.00 75 1004.9
20260902051032 62 348 0.0 3.0 0.00 0.00 0.00 74 1004.9
20260902050532 62 348 0.0 3.0 0.00 0.00 0.00 74 1004.9
20260902050043 62 346 0.0 3.0 0.00 0.00 0.00 73 1004.9
20260902045532 62 346 0.0 7.0 0.00 0.00 0.00 73 1004.9
20260902045032 62 84 1.0 7.0 0.00 0.00 0.00 73 1005.0
20260902044533 62 73 0.0 4.0 0.00 0.00 0.00 73 1005.0
20260902044032 62 117 1.0 4.0 0.00 0.00 0.00 73 1005.0
20260902043531 62 2 1.0 4.0 0.00 0.00 0.00 73 1005.0
20260902043031 62 160 0.0 4.0 0.00 0.00 0.00 73 1005.1
20260902042533 62 194 0.0 3.0 0.00 0.00 0.00 73 1005.1
20260902042031 62 26 0.0 2.0 0.00 0.00 0.00 73 1005.1
20260902041539 62 26 0.0 2.0 0.00 0.00 0.00 73 1005.1
20260902041047 63 25 0.0 2.0 0.00 0.00 0.00 72 1005.2
20260902040546 63 25 1.0 2.0 0.00 0.00 0.00 72 1005.2
20260902040046 63 125 0.0 4.0 0.00 0.00 0.00 71 1005.2
20260902035548 63 146 1.0 5.0 0.00 0.00 0.00 71 1005.1
20260902035046 63 1 1.0 8.0 0.00 0.00 0.00 71 1005.0
20260902034545 63 36 2.0 8.0 0.00 0.00 0.00 71 1005.0
20260902034047 63 17 1.0 11.0 0.00 0.00 0.00 71 1004.9
20260902033545 63 30 4.0 15.0 0.00 0.00 0.00 70 1004.8
20260902033045 63 17 5.0 15.0 0.00 0.00 0.00 71 1004.8
20260902032545 63 19 3.0 9.0 0.00 0.00 0.00 71 1004.7
20260902032043 63 32 3.0 15.0 0.00 0.00 0.00 71 1004.7
20260902031544 63 286 5.0 15.0 0.00 0.00 0.00 71 1004.7
20260902031045 63 19 3.0 10.0 0.00 0.00 0.00 71 1004.7
20260902030545 63 352 1.0 4.0 0.00 0.00 0.00 71 1004.7
20260902030043 63 4 0.0 5.0 0.00 0.00 0.00 71 1004.7
20260902025542 63 197 0.0 5.0 0.00 0.00 0.00 71 1004.7
20260902025043 63 329 2.0 9.0 0.00 0.00 0.00 71 1004.6
20260902024545 63 150 1.0 9.0 0.00 0.00 0.00 71 1004.7
20260902024044 63 140 1.0 5.0 0.00 0.00 0.00 71 1004.7
20260902023543 63 175 0.0 4.0 0.00 0.00 0.00 71 1004.7
20260902023042 63 176 0.0 6.0 0.00 0.00 0.00 71 1004.8
20260902022542 63 9 1.0 6.0 0.00 0.00 0.00 72 1004.9
20260902022041 63 151 1.0 3.0 0.00 0.00 0.00 71 1004.8
20260902021549 63 22 0.0 3.0 0.00 0.00 0.00 71 1004.8
20260902021040 63 65 0.0 3.0 0.00 0.00 0.00 72 1004.8
20260902020541 63 65 0.0 3.0 0.00 0.00 0.00 71 1004.9
20260902020040 63 166 0.0 5.0 0.00 0.00 0.00 71 1004.9
20260902015543 63 168 2.0 5.0 0.00 0.00 0.00 72 1005.0
20260902015040 63 123 1.0 6.0 0.00 0.00 0.00 72 1005.0
20260902014544 63 111 0.0 2.0 0.00 0.00 0.00 72 1005.0
20260902014039 63 53 0.0 3.0 0.00 0.00 0.00 73 1005.0
20260902013539 63 46 0.0 4.0 0.00 0.00 0.00 72 1005.0
20260902013039 63 123 0.0 5.0 0.00 0.00 0.00 72 1005.0
20260902012540 64 187 1.0 5.0 0.00 0.00 0.00 72 1004.9
20260902012038 64 149 1.0 3.0 0.00 0.00 0.00 73 1004.9
20260902011547 64 132 0.0 3.0 0.00 0.00 0.00 73 1004.7
20260902011038 64 146 0.0 2.0 0.00 0.00 0.00 73 1004.7
20260902010639 64 146 0.0 4.0 0.00 0.00 0.00 73 1004.7
20260902010106 64 146 1.0 4.0 0.00 0.00 0.00 71 1004.6
20260902005535 64 233 0.0 4.0 0.00 0.00 0.00 71 1004.6
20260902005035 64 163 0.0 4.0 0.00 0.00 0.00 71 1004.6
20260902004535 65 86 1.0 4.0 0.00 0.00 0.00 72 1004.6
20260902004036 65 180 1.0 6.0 0.00 0.00 0.00 73 1004.5
20260902003534 65 52 1.0 6.0 0.00 0.00 0.00 72 1004.5
20260902003034 65 285 2.0 6.0 0.00 0.00 0.00 71 1004.4
20260902002536 66 317 1.0 5.0 0.00 0.00 0.00 71 1004.3
20260902002034 66 58 1.0 5.0 0.00 0.00 0.00 72 1004.4
20260902001533 65 152 1.0 4.0 0.00 0.00 0.00 73 1004.5